[[{"header":{"parameterUnit":"m.s-1","parameterCategory":1,"la1":30.2991,"la2":30.254,"lo1":-89.0895,"lo2":-89.0444,"dy":0.0017,"dx":0.0017,"nx":28,"ny":28,"refTime":"2024-08-12T03:00:00:Z","depth":0,"parameterNumber":2,"parameterNumberName":"U-component_of_WINDS"},"data":[0,0,0,0,0,0,0,0,0,0,0,0,0,0,0,0,0,0,0,0,0,0,0,0,0,0,0,0,0,0,0,0,0,0,0,0,0,0,0,0,0,0,0,0,0,0,0,0,0,0,0,0,0,0,0,0,0,0,0.6805,0.6806,0,0.6884,0.6884,0.6885,0.6899,0.6899,0.6898,0.6897,0.6981,0.6984,0.6987,0,0,0,0,0,0,0,0,0,0,0,0,0,0.6671,0.6673,0.6805,0.6806,0.6807,0.6883,0.6885,0.6886,0.6899,0.6899,0.6898,0.6897,0.698,0.6984,0.6987,0,0,0,0,0,0,0,0,0,0,0,0,0,0.6737,0.6674,0.6805,0.6823,0.6825,0.6883,0.6885,0.6886,0.69,0.6899,0.6898,0.6897,0.6979,0.6984,0.6988,0.7034,0,0,0.7001,0.7003,0,0,0,0,0,0,0,0,0.6733,0.6742,0.6819,0.6822,0.6825,0.6881,0.6868,0.6936,0.69,0.6872,0.6897,0.6896,0.6949,0.6956,0.6973,0.7038,0.7042,0.7001,0.7004,0.7006,0.7007,0,0,0,0,0,0,0,0.6729,0.6739,0.6836,0.6821,0.6824,0.6828,0.6837,0.6881,0.6915,0.6874,0.6875,0.6884,0.695,0.6968,0.6975,0.7043,0.7001,0.7005,0.7008,0.7009,0.715,0.7152,0,0,0,0,0,0,0.672,0.6735,0.6834,0.6839,0.6775,0.6832,0.6841,0.6864,0.6915,0.6921,0.6885,0.6884,0.6962,0.697,0.6978,0.7035,0.7006,0.701,0.7012,0.7149,0.7151,0.7152,0,0,0,0,0,0,0.6717,0.6729,0.6831,0.6787,0.68,0.6835,0.686,0.6866,0.6884,0.6923,0.6929,0.6897,0.6961,0.6972,0.702,0.7039,0.7012,0.7015,0.7148,0.715,0.7151,0.7151,0,0,0,0,0,0,0.6713,0.6728,0.6745,0.6787,0.6803,0.687,0.6862,0.6868,0.6891,0.6891,0.6936,0.6942,0.6961,0.7013,0.7024,0.7044,0.7019,0.7146,0.7149,0.7151,0.715,0.7153,0.7155,0,0,0,0,0,0.6709,0.6743,0.6746,0.6758,0.6825,0.6871,0.688,0.69,0.6892,0.6911,0.6935,0.6941,0.7035,0.7018,0.703,0.7052,0.7145,0.7148,0.7151,0.7148,0.7152,0.7155,0,0,0,0,0,0,0.6703,0.6749,0.6753,0.6801,0.6832,0.6873,0.6897,0.6903,0.6938,0.6937,0.6962,0.6972,0.7018,0.704,0.7021,0.7099,0.709,0.7095,0.7084,0.7087,0.709,0.7084,0.7022,0,0,0,0,0,0.6707,0.674,0.6779,0.6818,0.6833,0.6862,0.6883,0.6896,0.693,0.6943,0.6971,0.7005,0.7042,0.7066,0.7102,0.7153,0.7163,0.7173,0.7176,0.7178,0.7183,0.7211,0.7217,0.7161,0.7161,0.7161,0,0,0.6717,0.6746,0.6765,0.6817,0.6843,0.6878,0.6873,0.691,0.6936,0.6949,0.6996,0.7018,0.7057,0.7106,0.7129,0.7126,0.72,0.7182,0.7183,0.7187,0.7215,0.722,0.7224,0.7163,0.7162,0.7162,0,0,0.6752,0.6776,0.6812,0.6837,0.6875,0.6894,0.6903,0.6943,0.6958,0.7005,0.7015,0.7047,0.7111,0.7138,0.716,0.7205,0.7211,0.7216,0.7231,0.7258,0.7263,0.7267,0.7283,0.7289,0.722,0.722,0.722,0,0.6759,0.681,0.6829,0.6866,0.6889,0.69,0.6937,0.6961,0.701,0.7026,0.702,0.7099,0.7127,0.7183,0.7193,0.7211,0.7222,0.7211,0.726,0.7265,0.7269,0.7285,0.7291,0.722,0.722,0.722,0.722,0,0.6818,0.6853,0.6877,0.6922,0.6948,0.6984,0.701,0.7034,0.7044,0.7064,0.7112,0.7145,0.7188,0.7202,0.7213,0.726,0.7256,0.7255,0.7246,0.7274,0.7289,0.7295,0.7221,0.7221,0.7221,0.7221,0,0,0.6852,0.6906,0.6915,0.6936,0.6978,0.7007,0.7044,0.7085,0.7105,0.7138,0.717,0.7223,0.7222,0.7247,0.7262,0.7286,0.7319,0.7282,0.7283,0.7288,0.7373,0.7373,0.738,0.7324,0.7325,0.7326,0.737,0,0.6892,0.6957,0.6975,0.7031,0.7064,0.7076,0.7108,0.7138,0.7158,0.719,0.7212,0.7249,0.7246,0.7261,0.7285,0.731,0.7337,0.7307,0.7355,0.7356,0.7345,0.7388,0.7389,0.7429,0.7376,0.7377,0.7378,0,0.6948,0.698,0.7039,0.7077,0.7092,0.7121,0.7159,0.7189,0.7224,0.7237,0.7265,0.7276,0.7316,0.7304,0.736,0.7339,0.736,0.7375,0.7377,0.7383,0.7369,0.7395,0.7442,0.7448,0.7387,0.7387,0.7386,0,0.6967,0.7026,0.7068,0.7086,0.7131,0.7151,0.7171,0.7205,0.7228,0.7263,0.7278,0.7317,0.7339,0.7369,0.7391,0.738,0.7445,0.7435,0.7457,0.7457,0.7471,0.747,0.7522,0.7484,0.7484,0.7483,0.7483,0,0.701,0.7045,0.7077,0.7104,0.7144,0.7165,0.7205,0.7225,0.7255,0.7286,0.7299,0.7328,0.7356,0.7389,0.7407,0.745,0.746,0.7472,0.7476,0.7471,0.747,0.7485,0.7483,0.7485,0.7485,0.7484,0.7484,0,0.7038,0.7061,0.7108,0.7147,0.7158,0.7186,0.722,0.7247,0.7266,0.7306,0.7316,0.7348,0.7387,0.7412,0.7463,0.7475,0.7523,0.7526,0.7511,0.7513,0.7534,0.7532,0.7598,0.7608,0.7563,0.7563,0.7564,0,0.7065,0.7092,0.7134,0.7155,0.7175,0.7209,0.7232,0.7254,0.7278,0.732,0.7341,0.7382,0.7415,0.7478,0.7506,0.7545,0.7549,0.757,0.7555,0.7549,0.755,0.7548,0.7551,0.7573,0.7573,0.7573,0.7573,0,0.7109,0.7118,0.7151,0.7188,0.7215,0.7246,0.7276,0.7293,0.732,0.7347,0.7387,0.7412,0.7464,0.7504,0.7545,0.7567,0.7575,0.7578,0.7585,0.758,0.757,0.7576,0.7517,0.7576,0.7576,0.7576,0.7576,0.7576,0.7137,0.7162,0.7195,0.7231,0.7256,0.7284,0.731,0.7333,0.7366,0.7409,0.742,0.7462,0.7496,0.7552,0.7575,0.7609,0.7606,0.7617,0.7619,0.7622,0.7622,0.7564,0.7616,0.7616,0.7616,0.7616,0.7616,0,0.7182,0.7203,0.7236,0.7278,0.7307,0.731,0.7344,0.7368,0.7404,0.7435,0.7467,0.7513,0.7552,0.7583,0.7623,0.7644,0.7649,0.7654,0.7652,0.7657,0.7622,0.7612,0.7649,0.7649,0.7649,0.7649,0.7649,0.7649,0.7209,0.7251,0.7264,0.7319,0.7341,0.7381,0.74,0.7426,0.7451,0.7501,0.7533,0.7552,0.7583,0.7626,0.7661,0.7669,0.7684,0.7688,0.7697,0.7664,0.766,0.7657,0.7647,0.7691,0.7691,0.7729,0.773,0.773]},{"header":{"parameterUnit":"m.s-1","parameterCategory":1,"la1":30.2991,"la2":30.254,"lo1":-89.0895,"lo2":-89.0444,"dy":0.0017,"dx":0.0017,"nx":28,"ny":28,"refTime":"2024-08-12T03:00:00:Z","depth":0,"parameterNumber":3,"parameterNumberName":"V-component_of_WINDS"},"data":[0,0,0,0,0,0,0,0,0,0,0,0,0,0,0,0,0,0,0,0,0,0,0,0,0,0,0,0,0,0,0,0,0,0,0,0,0,0,0,0,0,0,0,0,0,0,0,0,0,0,0,0,0,0,0,0,0,0,2.0709,2.0709,0,2.0693,2.0693,2.0692,2.0659,2.0658,2.0657,2.0657,2.0638,2.0638,2.0638,0,0,0,0,0,0,0,0,0,0,0,0,0,2.0706,2.0706,2.0709,2.0709,2.0709,2.0693,2.0693,2.0692,2.0659,2.0658,2.0657,2.0657,2.0638,2.0638,2.0638,0,0,0,0,0,0,0,0,0,0,0,0,0,2.07,2.0706,2.0709,2.069,2.0688,2.0693,2.0692,2.0692,2.0659,2.0658,2.0657,2.0656,2.0637,2.0638,2.0638,2.0659,0,0,2.0638,2.0638,0,0,0,0,0,0,0,0,2.0701,2.07,2.0693,2.0691,2.0689,2.0677,2.0684,2.0681,2.0659,2.067,2.0657,2.0656,2.0651,2.065,2.0649,2.0658,2.0657,2.0638,2.0638,2.0638,2.0638,0,0,0,0,0,0,0,2.0701,2.0701,2.0702,2.0693,2.0691,2.0681,2.0679,2.0684,2.0666,2.0669,2.0667,2.0665,2.065,2.0649,2.0649,2.0657,2.0638,2.0638,2.0639,2.0639,2.0677,2.0677,0,0,0,0,0,0,2.0705,2.0701,2.0703,2.0702,2.0693,2.0682,2.0679,2.0682,2.0666,2.0663,2.0666,2.0664,2.0649,2.0648,2.0648,2.0668,2.0638,2.0639,2.0639,2.0676,2.0677,2.0678,0,0,0,0,0,0,2.0705,2.0705,2.0704,2.0701,2.07,2.0683,2.0686,2.0682,2.0681,2.0664,2.066,2.0669,2.0649,2.0648,2.0655,2.0667,2.0639,2.0639,2.0675,2.0676,2.0677,2.0711,0,0,0,0,0,0,2.0705,2.0706,2.0715,2.0702,2.07,2.0713,2.0686,2.0682,2.0682,2.0679,2.0666,2.0662,2.0648,2.0655,2.0655,2.0667,2.0639,2.0673,2.0675,2.0677,2.0708,2.0713,2.0717,0,0,0,0,0,2.0705,2.0725,2.0715,2.0716,2.0712,2.0714,2.0713,2.0697,2.0683,2.0691,2.0679,2.0663,2.0666,2.0656,2.0656,2.0668,2.0673,2.0675,2.0677,2.0706,2.0712,2.0717,0,0,0,0,0,0,2.074,2.0723,2.0712,2.0729,2.0723,2.0708,2.0718,2.0704,2.0701,2.0698,2.0677,2.0674,2.0684,2.0677,2.0666,2.0685,2.0666,2.0669,2.0689,2.0694,2.0698,2.0699,2.0639,0,0,0,0,0,2.075,2.0754,2.0739,2.0755,2.0753,2.0736,2.0736,2.0724,2.0717,2.0714,2.0703,2.0696,2.0694,2.0694,2.0693,2.0707,2.0702,2.0715,2.0719,2.0723,2.0724,2.0728,2.0732,2.0685,2.0685,2.0685,0,0,2.077,2.0761,2.0765,2.0762,2.0756,2.0758,2.0734,2.0739,2.074,2.0714,2.072,2.0712,2.0702,2.0712,2.0717,2.0707,2.0736,2.0725,2.0728,2.0728,2.073,2.0735,2.0739,2.0686,2.0686,2.0685,0,0,2.0807,2.0802,2.0813,2.0807,2.0799,2.0787,2.0789,2.0776,2.077,2.0776,2.0755,2.0755,2.0755,2.0748,2.0744,2.0775,2.0759,2.0775,2.0797,2.08,2.0804,2.0807,2.0815,2.0819,2.0777,2.0777,2.0777,0,2.0832,2.0838,2.0821,2.0826,2.0824,2.08,2.0809,2.0804,2.0795,2.0793,2.0783,2.0779,2.0771,2.0778,2.0785,2.0784,2.0784,2.0776,2.0805,2.0808,2.0811,2.0818,2.0822,2.0779,2.0779,2.0779,2.0778,0,2.0867,2.0871,2.0881,2.0872,2.0871,2.0879,2.0861,2.0861,2.0848,2.0837,2.0841,2.083,2.0824,2.0825,2.0813,2.0829,2.0823,2.081,2.079,2.0818,2.0824,2.0827,2.0782,2.0781,2.078,2.078,0,0,2.0927,2.0907,2.0911,2.0905,2.0892,2.0894,2.0899,2.0893,2.0892,2.0887,2.0888,2.0887,2.0873,2.0869,2.0855,2.0859,2.088,2.0844,2.0844,2.0849,2.0893,2.0902,2.0906,2.087,2.087,2.0871,2.0893,0,2.0959,2.0967,2.0951,2.0962,2.0963,2.094,2.0944,2.0935,2.0924,2.0922,2.091,2.0908,2.0892,2.0888,2.0891,2.0877,2.0888,2.0876,2.0869,2.0869,2.087,2.091,2.092,2.0942,2.0896,2.0896,2.0897,0,2.0998,2.0993,2.1005,2.0988,2.0988,2.0992,2.0984,2.0983,2.0972,2.0963,2.0957,2.0941,2.0942,2.0925,2.0925,2.0916,2.0912,2.0905,2.0905,2.0902,2.0883,2.0906,2.0948,2.0951,2.0901,2.0901,2.09,0,2.1035,2.1032,2.1038,2.1034,2.1016,2.1019,2.1011,2.0999,2.0995,2.0988,2.0985,2.0978,2.0973,2.0967,2.0948,2.0938,2.0949,2.0931,2.094,2.094,2.0942,2.0942,2.0982,2.0943,2.0943,2.0943,2.0943,0,2.1072,2.1079,2.1054,2.1057,2.1063,2.1044,2.105,2.104,2.1029,2.1028,2.1008,2.1007,2.0983,2.0979,2.0965,2.0965,2.0964,2.0955,2.095,2.0955,2.0956,2.0951,2.0948,2.0944,2.0944,2.0944,2.0943,0,2.1114,2.1099,2.1102,2.1085,2.108,2.1085,2.1069,2.107,2.1057,2.1056,2.1055,2.1034,2.1028,2.1009,2.0999,2.0989,2.0992,2.0986,2.0996,2.0993,2.1002,2.1,2.1039,2.1042,2.1003,2.1004,2.1004,0,2.1137,2.1142,2.1125,2.1123,2.1116,2.1114,2.111,2.109,2.1086,2.1072,2.1074,2.1066,2.1059,2.105,2.1033,2.1024,2.1016,2.103,2.1014,2.1018,2.1012,2.1012,2.1011,2.1032,2.1033,2.1034,2.1034,0,2.1179,2.117,2.1166,2.1158,2.1154,2.1147,2.1138,2.1138,2.1115,2.1112,2.1105,2.11,2.1088,2.108,2.1068,2.1058,2.1041,2.1039,2.104,2.1044,2.1049,2.1044,2.1003,2.1038,2.1038,2.1037,2.1037,2.1037,2.121,2.1212,2.1199,2.1194,2.1186,2.1178,2.1177,2.1164,2.1159,2.1148,2.1136,2.113,2.1116,2.1098,2.1089,2.1083,2.1074,2.1077,2.1077,2.1077,2.1078,2.1052,2.1081,2.1081,2.108,2.108,2.108,0,2.1248,2.1238,2.1234,2.1222,2.1218,2.1204,2.1193,2.1189,2.1185,2.1174,2.1166,2.1158,2.1149,2.1131,2.112,2.1118,2.111,2.1116,2.1115,2.1112,2.1088,2.1087,2.1122,2.1122,2.1122,2.1122,2.1122,2.1122,2.1267,2.1268,2.1258,2.1254,2.1244,2.1238,2.1233,2.1224,2.1215,2.1206,2.1199,2.1188,2.1172,2.116,2.115,2.1145,2.1141,2.1149,2.1141,2.1118,2.1114,2.111,2.1109,2.1149,2.1149,2.1165,2.1165,2.1165]}]]